KB6VSE Weather Reports


Display with metric or nautical units.
time (UTC)temp
F
wind
direction
speed
MPH
gust
MPH
rain 1hr
in
rain 24hr
in
rain mn
in
humidity
%
barometer
mb
20260505113052 52 0 0.0 0.0 0.00 0.00 0.00 95 1015.8
20260505111554 52 0 0.0 0.0 0.00 0.00 0.00 95 1015.8
20260505101547 52 0 0.0 0.0 0.00 0.00 0.00 95 1015.9
20260505100049 52 0 0.0 0.0 0.00 0.00 0.00 95 1016.0
20260505094548 52 0 0.0 0.0 0.00 0.00 0.00 95 1016.1
20260505093048 52 0 0.0 0.0 0.00 0.00 0.00 95 1016.3
20260505091549 52 0 0.0 0.0 0.00 0.00 0.00 95 1016.3
20260505090055 52 0 0.0 0.0 0.00 0.00 0.00 95 1016.3
20260505084548 52 0 0.0 0.0 0.00 0.00 0.00 95 1016.4
20260505083047 52 0 0.0 0.0 0.00 0.00 0.00 95 1016.5
20260505081548 52 0 0.0 0.0 0.00 0.00 0.00 95 1016.5
20260505080053 53 0 0.0 0.0 0.00 0.00 0.00 95 1016.5
20260505074550 53 0 0.0 0.0 0.00 0.00 0.00 95 1016.6
20260505073057 53 0 0.0 0.0 0.00 0.00 0.00 95 1016.5
20260505071545 53 0 0.0 0.0 0.00 0.00 0.00 95 1016.6
20260505070052 53 0 0.0 0.0 0.00 0.00 0.00 95 1016.9
20260505064551 53 0 0.0 0.0 0.00 0.00 0.00 94 1017.0
20260505063053 53 0 0.0 0.0 0.00 0.00 0.00 94 1017.0
20260505061547 53 0 0.0 0.0 0.00 0.00 0.00 95 1017.1
20260505060050 53 0 0.0 0.0 0.00 0.00 0.00 94 1017.2
20260505054559 53 0 0.0 0.0 0.00 0.00 0.00 94 1017.1
20260505053050 53 0 0.0 0.0 0.00 0.00 0.00 94 1017.2
20260505051549 53 0 0.0 0.0 0.00 0.00 0.00 94 1017.1
20260505050123 53 0 0.0 0.0 0.00 0.00 0.00 94 1017.0
20260505041553 53 0 0.0 0.0 0.00 0.00 0.00 93 1016.9
20260505040055 53 0 0.0 0.0 0.00 0.00 0.00 93 1016.9
20260505034545 53 0 0.0 0.0 0.00 0.00 0.00 93 1016.7
20260505033044 53 0 0.0 0.0 0.00 0.00 0.00 92 1016.5
20260505031548 54 0 0.0 0.0 0.00 0.00 0.00 92 1016.3
20260505030045 54 0 0.0 0.0 0.00 0.00 0.00 91 1016.3
20260505024550 54 0 0.0 0.0 0.00 0.00 0.00 91 1016.1
20260505023053 54 0 0.0 0.0 0.00 0.00 0.00 90 1016.2
20260505021545 54 0 0.0 0.0 0.00 0.00 0.00 91 1016.1
20260505020045 54 0 0.0 0.0 0.00 0.00 0.00 89 1016.0
20260505014602 55 0 0.0 0.0 0.00 0.00 0.00 89 1016.3
20260505013043 55 0 0.0 0.0 0.00 0.00 0.00 87 1016.3
20260505011550 56 0 0.0 0.0 0.00 0.00 0.00 85 1016.4
20260505010050 56 0 0.0 0.0 0.00 0.00 0.00 84 1016.0
20260505004548 57 0 0.0 0.0 0.00 0.00 0.00 82 1016.0
20260505003050 57 0 0.0 0.0 0.00 0.00 0.00 81 1015.8
20260505001601 58 0 0.0 0.0 0.00 0.00 0.00 79 1015.7
20260505000103 58 0 0.0 0.0 0.00 0.00 0.00 79 1015.7
20260504234603 59 0 0.0 0.0 0.00 0.00 0.00 78 1015.5
20260504233040 60 0 0.0 0.0 0.00 0.00 0.00 78 1015.5
20260504231547 61 0 0.0 0.0 0.00 0.00 0.00 77 1015.6
20260504230047 62 0 0.0 0.0 0.00 0.00 0.00 77 1015.6
20260504224558 62 0 0.0 0.0 0.00 0.00 0.00 76 1015.6
20260504223045 63 0 0.0 0.0 0.00 0.00 0.00 75 1015.6
20260504221549 63 0 0.0 0.0 0.00 0.00 0.00 74 1015.6
20260504220051 64 0 0.0 0.0 0.00 0.00 0.00 74 1015.7
20260504214550 64 0 0.0 0.0 0.00 0.00 0.00 73 1015.8
20260504213109 64 0 0.0 0.0 0.00 0.00 0.00 73 1016.0
20260504211555 64 0 0.0 0.0 0.00 0.00 0.00 73 1015.9
20260504210044 63 0 0.0 0.0 0.00 0.00 0.00 76 1016.2
20260504204552 62 0 0.0 0.0 0.00 0.00 0.00 76 1016.3
20260504203040 62 0 0.0 0.0 0.00 0.00 0.00 76 1016.3
20260504201548 62 0 0.0 0.0 0.00 0.00 0.00 77 1016.4
20260504200049 62 0 0.0 0.0 0.00 0.00 0.00 76 1016.3
20260504194558 63 0 0.0 0.0 0.00 0.00 0.00 74 1016.3
20260504193052 63 0 0.0 0.0 0.00 0.00 0.00 74 1016.3
20260504191541 63 0 0.0 0.0 0.00 0.00 0.00 73 1016.7
20260504184543 61 0 0.0 1.0 0.00 0.00 0.00 82 1016.6
20260504183046 60 0 0.0 0.0 0.00 0.00 0.00 80 1017.0
20260504181552 60 0 0.0 0.0 0.00 0.00 0.00 79 1017.1
20260504180047 59 0 0.0 0.0 0.00 0.00 0.00 81 1016.6
20260504174555 58 0 0.0 0.0 0.00 0.00 0.00 86 1016.7
20260504173051 56 0 0.0 0.0 0.00 0.00 0.00 86 1016.8
20260504171548 56 0 0.0 0.0 0.00 0.00 0.00 88 1016.8